Weather History for Westfield, MA

Change the Weather History Date:

Friday, February 24, 2012

  Actual Average Record
Temperature  
Mean Temperature 32 °F -  
Max Temperature 35 °F 36 °F 45 °F (2002)
Min Temperature 28 °F 19 °F 5 °F (2011)
Degree Days  
Heating Degree Days 34    
Moisture  
Dew Point 31 °F    
Average Humidity 91    
Maximum Humidity 96    
Minimum Humidity 75    
Precipitation  
Precipitation 0.80 in - - ()
Sea Level Pressure  
Sea Level Pressure 29.55 in    
Wind  
Wind Speed 3 mph (North)    
Max Wind Speed 14 mph    
Max Gust Speed -    
Visibility 4 miles    
Events Rain , Snow    
Averages and records for this station are not official NWS values.
T = Trace of Precipitation, MM = Missing Value Source: NWS Daily Summary

Daily Weather History Graph

Daily Weather History Graph

Search for Another Location

Airport:

Trip Planner

Search our weather history database for the weather conditions in past years. The results will help you decide how hot, cold, wet, or windy it might be!

Date:

Astronomy

Feb. 24, 2012 Rise Set
Actual Time 6:34 AM EST 5:34 PM EST
Civil Twilight 6:06 AM EST 6:02 PM EST
Nautical Twilight 5:33 AM EST 6:34 PM EST
Astronomical Twilight 5:01 AM EST 7:07 PM EST
Moon 7:24 AM EST (2/24) 8:39 PM EST (2/24)
Length of Visible Light 11h 56m
Length of Day
10h 59m
Waxing Crescent, 7% of the Moon is Illuminated
Feb 24
Waxing Crescent
Feb 29
First Quarter
Mar 8
Full
Mar 14
Last Quarter
Mar 22
New

Hourly Weather History & Observations

Time (EST) Temp. Windchill Dew Point Humidity Pressure Visibility Wind Dir Wind Speed Gust Speed Precip Events Conditions
12:53 AM 28.0 °F 24.2 °F 23.0 °F 81% 29.77 in 10.0 mi North 3.5 mph - N/A   Clear
1:53 AM 30.0 °F - 24.1 °F 79% 29.76 in 10.0 mi Calm Calm - N/A   Clear
2:53 AM 30.0 °F - 25.0 °F 82% 29.78 in 10.0 mi Calm Calm - N/A   Overcast
3:53 AM 30.9 °F 26.2 °F 26.1 °F 82% 29.77 in 10.0 mi North 4.6 mph - N/A   Overcast
4:53 AM 32.0 °F - 25.0 °F 75% 29.77 in 10.0 mi Calm Calm - N/A   Overcast
5:18 AM 32.0 °F 28.7 °F 26.6 °F 80% 29.75 in 3.0 mi SSW 3.5 mph - 0.00 in Snow Light Snow
5:49 AM 30.2 °F 26.7 °F 28.4 °F 93% 29.74 in 1.8 mi South 3.5 mph - 0.00 in Snow Light Snow
5:53 AM 30.9 °F - 28.0 °F 89% 29.75 in 1.0 mi Calm Calm - 0.00 in Snow Light Snow
6:00 AM 30.2 °F - 28.4 °F 93% 29.72 in 0.8 mi Calm Calm - 0.00 in Snow Light Snow
6:08 AM 30.2 °F - 28.4 °F 93% 29.73 in 1.0 mi Calm Calm - 0.00 in Snow Light Snow
6:37 AM 30.2 °F - 28.4 °F 93% 29.75 in 1.2 mi Calm Calm - 0.00 in Snow Light Snow
6:53 AM 30.9 °F - 30.0 °F 96% 29.78 in 1.0 mi Calm Calm - 0.00 in Snow Light Snow
7:53 AM 32.0 °F 28.7 °F 30.0 °F 92% 29.77 in 1.5 mi NNW 3.5 mph - 0.01 in Snow Light Snow
8:53 AM 32.0 °F 27.5 °F 30.0 °F 92% 29.76 in 2.0 mi North 4.6 mph - 0.01 in   Overcast
9:53 AM 33.1 °F 28.7 °F 30.9 °F 92% 29.75 in 2.0 mi North 4.6 mph - 0.03 in   Overcast
10:53 AM 34.0 °F 28.8 °F 30.9 °F 89% 29.70 in 2.0 mi NNE 5.8 mph - 0.03 in   Overcast
11:53 AM 34.0 °F 29.8 °F 30.9 °F 89% 29.68 in 2.0 mi North 4.6 mph - N/A   Overcast
12:10 PM 33.8 °F 27.7 °F 30.2 °F 87% 29.65 in 1.8 mi North 6.9 mph - N/A   Overcast
12:20 PM 33.8 °F 29.6 °F 30.2 °F 87% 29.64 in 1.8 mi North 4.6 mph - N/A   Overcast
12:53 PM 34.0 °F 29.8 °F 32.0 °F 92% 29.64 in 1.5 mi North 4.6 mph - 0.01 in   Overcast
1:53 PM 34.0 °F 29.8 °F 32.0 °F 92% 29.60 in 1.2 mi NNE 4.6 mph - 0.02 in   Overcast
2:10 PM 33.8 °F 29.6 °F 32.0 °F 93% 29.59 in 1.5 mi NNW 4.6 mph - 0.00 in   Overcast
2:53 PM 33.8 °F 28.6 °F 32.0 °F 93% 29.59 in 2.0 mi North 5.8 mph - 0.02 in   Overcast
3:00 PM 33.8 °F 28.6 °F 32.0 °F 93% 29.57 in 1.5 mi North 5.8 mph - N/A   Overcast
3:53 PM 34.0 °F 31.0 °F 32.0 °F 92% 29.56 in 1.2 mi North 3.5 mph - 0.01 in   Overcast
4:48 PM 33.8 °F 29.6 °F 32.0 °F 93% 29.50 in 1.2 mi NNE 4.6 mph - 0.01 in   Overcast
4:53 PM 34.0 °F 28.8 °F 33.1 °F 96% 29.52 in 1.2 mi North 5.8 mph - 0.01 in   Overcast
5:50 PM 33.8 °F 27.0 °F 32.0 °F 93% 29.46 in 2.0 mi North 8.1 mph - 0.02 in   Overcast
5:53 PM 34.0 °F 27.2 °F 32.0 °F 92% 29.48 in 2.0 mi North 8.1 mph - 0.02 in   Overcast
6:40 PM 33.8 °F 29.6 °F 32.0 °F 93% 29.44 in 2.5 mi NNW 4.6 mph - 0.13 in Rain Heavy Rain
6:53 PM 34.0 °F 28.0 °F 32.0 °F 92% 29.43 in 2.0 mi North 6.9 mph - 0.22 in Rain Heavy Rain
7:09 PM 33.8 °F 28.6 °F 32.0 °F 93% 29.39 in 2.5 mi North 5.8 mph - 0.08 in Rain Heavy Rain
7:28 PM 33.8 °F 28.6 °F 32.0 °F 93% 29.35 in 5.0 mi NNW 5.8 mph - 0.15 in Rain Light Rain
7:33 PM 33.8 °F 27.7 °F 32.0 °F 93% 29.35 in 5.0 mi NNW 6.9 mph - 0.16 in Rain Rain
7:53 PM 34.0 °F 27.2 °F 32.0 °F 92% 29.37 in 3.0 mi North 8.1 mph - 0.23 in Rain Heavy Rain
8:02 PM 33.8 °F 26.4 °F 32.0 °F 93% 29.36 in 4.0 mi NW 9.2 mph - 0.03 in Rain Rain
8:20 PM 35.6 °F 26.6 °F 33.8 °F 93% 29.38 in 5.0 mi NW 13.8 mph - 0.10 in Rain Rain
8:34 PM 35.6 °F 32.8 °F 33.8 °F 93% 29.37 in 5.0 mi North 3.5 mph - 0.14 in Rain Rain
8:53 PM 35.1 °F 32.2 °F 33.1 °F 92% 29.35 in 10.0 mi NE 3.5 mph - 0.16 in Rain Light Rain
9:31 PM 35.6 °F 31.7 °F 33.8 °F 93% 29.33 in 10.0 mi NNW 4.6 mph - 0.01 in   Overcast
9:53 PM 35.1 °F 32.2 °F 33.1 °F 92% 29.33 in 10.0 mi Variable 3.5 mph - 0.01 in Rain Light Rain
10:08 PM 35.6 °F 32.8 °F 33.8 °F 93% 29.30 in 10.0 mi NNE 3.5 mph - 0.01 in Rain Light Rain
10:41 PM 35.6 °F - 33.8 °F 93% 29.30 in 10.0 mi Calm Calm - 0.01 in   Overcast
10:53 PM 35.1 °F - 32.0 °F 89% 29.31 in 9.0 mi Calm Calm - 0.01 in   Overcast
11:19 PM 35.6 °F - 33.8 °F 93% 29.29 in 10.0 mi Calm Calm - N/A   Overcast
11:53 PM 34.0 °F - 33.1 °F 96% 29.29 in 7.0 mi Calm Calm - N/A   Mostly Cloudy